Flag for Canada Weather past 2 weeks in Gatineau, Quebec, Canada

Now
59 °F

Passing clouds.


Feels Like: 58 °F
Forecast: 53 / 72 °F
Wind: 8 mph from Northwest

Location: Ottawa Int'L. Ont.

Current Time: Jul 29, 2014 at 9:24:51 AM

Latest Report: Jul 29, 2014 at 9:00 AM


Visibility: 15 mi

Pressure: 29.85 "Hg

Humidity: 72%

Dew point: 50 °F

Location of GatineauLocation

Historic Weather in Gatineau — Graph

°F

Gatineau temperature yesterday

Maximum temperature yesterday: 66 °F (at 6:00 PM)
Minimum temperature yesterday: 57 °F (at 11:00 PM)
Average temperature yesterday: 62 °F

Past Weeks' High & Low Weather Summary

 TemperatureHumidityPressure
High84 °F (Jul 22, 12:00 PM)100% (Jul 18, 4:00 AM)30.26 "Hg (Jul 18, 4:00 AM)
Low50 °F (Jul 17, 5:00 AM)41% (Jul 24, 3:00 PM)29.61 "Hg (Jul 27, 5:00 PM)
Average67 °F73%29.92 "Hg
* Reported Jul 14 8:00 AM — Jul 29 8:00 AM, Gatineau, Weather by CustomWeather, © 2014

Note: Actual official high and low records may vary slightly from our data, if they occured in-between our weather recording intervals... More about our weather records

Advertising

Gatineau weather history for previous 24 hours

 ConditionsComfort  
Time TempWeatherWind HumidityBarometerVisibility
8:00 AM
Jul 29
57 °FPassing clouds.8 mph82%29.83 "Hg15 mi
7:00 AM52 °FPassing clouds.6 mph94%29.82 "Hg15 mi
6:00 AM50 °FPassing clouds.6 mph94%29.80 "Hg15 mi
5:00 AM52 °FPassing clouds.7 mph94%29.79 "Hg15 mi
4:00 AM54 °FPassing clouds.8 mph88%29.77 "Hg15 mi
3:00 AM54 °FClear.6 mph82%29.76 "Hg15 mi
2:00 AM57 °FClear.8 mph77%29.76 "Hg15 mi
1:00 AM57 °FClear.8 mph77%29.75 "Hg15 mi
12:00 AM57 °FPassing clouds.9 mph77%29.75 "Hg15 mi
11:00 PM
Jul 28
57 °FPassing clouds.8 mph82%29.75 "Hg15 mi
10:00 PM59 °FPassing clouds.6 mph72%29.74 "Hg15 mi
9:00 PM61 °FBroken clouds.8 mph72%29.72 "Hg15 mi
8:00 PM64 °FPartly sunny.9 mph64%29.71 "Hg15 mi
7:00 PM64 °FPartly sunny.14 mph68%29.70 "Hg15 mi
6:00 PM66 °FPartly sunny.15 mph68%29.69 "Hg15 mi
4:00 PM61 °FLight rain. Mostly cloudy.10 mph94%29.69 "Hg15 mi
3:00 PM61 °FLight rain. Overcast.10 mph88%29.68 "Hg15 mi
2:00 PM61 °FLight rain. Overcast.12 mph88%29.67 "Hg15 mi
1:00 PM61 °FLight rain. Mostly cloudy.16 mph88%29.68 "Hg15 mi
12:00 PM63 °FLight rain. Overcast.16 mph83%29.68 "Hg15 mi
11:00 AM61 °FLight rain. More clouds than sun.14 mph88%29.68 "Hg15 mi
10:00 AM63 °FLight rain. Overcast.13 mph83%29.68 "Hg15 mi
9:00 AM63 °FOvercast.16 mph83%29.67 "Hg15 mi
Weather by CustomWeather, © 2014

See weather overviewHow to use our weather pages